国家海洋和大气管理局 20号 (NOAA 20 (JPSS-1))

导读

NOAA 20是美国于2017年11月18日发射的极轨太阳同步轨道气象卫星,隶属于NOAA系列业务卫星。它延续了该系列气象环境监测的核心定位,搭载先进观测仪器,可获取高分辨率气象图像与大气温度垂直廓线数据,为全球气象预报、气候研究提供关键观测支撑,同时还具备空间环境监测等拓展能力,是美国气象业务卫星体系的重要组成部分。

Basic Information
目录编号:
43013
目录名称:
NOAA 20
国际标识:
2017-073A
轨道中心:
EARTH
卫星名称:
国家海洋和大气管理局 20号
卫星全名:
国家海洋和大气管理局 20号 (NOAA 20 (JPSS-1))
卫星状态:
在轨 (已飞行3160 天)
发射日期:
2017-11-18 UTC
国别 :
美国 (US)
星等 :
--
Orbit Information
数据来源 国际轨道数据 AOE轨道数据
星历时间 2026-07-14T04:33:30+0800
8小时前
查看轨道信息
2026-07-11T06:00:00+0800
3天前
查看轨道信息
半长轴 7205.127km 7205.127km
偏心率 0.0001337 0.0000966
轨道倾角 98.777° 98.777°
近地点辐角 125.748° 120.881°
升交点赤经 134.083° 131.168°
平近点角 234.382° 343.869°
近地点 826.026km 826.293km
远地点 827.954km 827.687km
周期 101.443分钟 101.443分钟
每日圈数 14.195162 14.195161
Detailed Information
卫星平台:
BCP-2000
平衡模式:
三轴稳定
覆盖范围:
美洲
制造商(研发单位):
波尔航天公司
制造商所在国:
美国
使用方式:
暂无
Satellite Introduction
NOAA卫星是美国国家海洋大气局的第三代实用气象观测卫星,第一代称为“泰罗斯”(TIROS)系列(1960-1965年),第二代称为“艾托斯”(ITOS)/NOAA系列(1970-1976年),其后运行的第三代称为TIROS--N/NOAA系列。其轨道是接近正圆的太阳同步轨道,轨道高度为870千米和833千米,轨道倾角为98.9°和98.7°,周期为101.4分钟。NOAA的应用目的是日常的气象业务,平时有两颗卫星运行。由于一颗卫星可以每天至少可以对地面同一地区进行两次观测,所以两颗卫星就可以进行四次以上的观测。该卫星仍在工作。
2D Orbit Map
3D Orbit Map
Orbit Altitude Analysis Chart
Orbit Inclination Analysis Chart
Orbit Comprehensive Analysis Chart
View Comprehensive Chart